This demonstration page uses our WeatherBlox Daily Observations layout. Learn more.

Left ArrowRight Arrow

31.31129, -92.44514

Hourly Observations for December 9, 2015

Temp ( °F °C ) Dew Point ( °F °C ) Humidity (%) Winds ( mph kmh ) Pressure ( in mb ) Visibility ( mi km ) Precip ( " mm )
12:34 am 00:34 Partly Cloudy with Mist and Fog 54 12.2 54 12.2 100 100 S 6 9 30.00 1016 4 6 0.00 0.00
12:48 am 00:48 Mostly Cloudy with Mist and Fog 55 13 54 12 94 94 S 7 11 30.00 1016 4 6 0.00 0.00
12:53 am 00:53 Cloudy with Mist and Fog 56 13.3 55 12.8 97 97 S 7 11 30.00 1016 4 6 0.00 0.00
1:08 am 01:08 Cloudy with Mist and Fog 57 13.9 56 13.3 96 96 S 12 19 29.97 1015 4 6 0.00 0.00
1:53 am 01:53 Cloudy with Mist and Fog 58 14.4 58 14.4 100 100 S 7 11 29.99 1016 4 6 0.00 0.00
2:53 am 02:53 Cloudy with Mist and Fog 59 15 58 14.4 96 96 S 7 11 29.99 1016 3 4 0.00 0.00
3:06 am 03:06 Cloudy with Mist and Fog 59 15 58 14.4 96 96 S 6 9 29.97 1015 3 5 0.00 0.00
3:53 am 03:53 Cloudy with Mist and Fog 58 14.4 58 14.4 100 100 SSE 3 6 29.99 1016 3 5 0.00 0.00
4:23 am 04:23 Cloudy with Mist and Fog 58 14.4 57 13.9 97 97 SSE 5 7 29.97 1015 3 4 0.00 0.00
4:53 am 04:53 Cloudy with Mist and Fog 57 13.9 57 13.9 100 100 SE 3 6 29.99 1016 2 3 0.00 0.00
5:07 am 05:07 Cloudy with Mist and Fog 57 13.9 57 13.9 100 100 SSE 6 9 29.97 1015 1 2 0.00 0.00
5:14 am 05:14 Cloudy with Fog 56 13.3 56 13.3 100 100 SSE 5 7 29.97 1015 1 1 0.00 0.00
5:53 am 05:53 Cloudy with Fog 56 13.3 56 13.3 100 100 Calm 30.01 1016 1 1 0.00 0.00
6:22 am 06:22 Cloudy with Mist and Fog 56 13.3 56 13.3 100 100 Calm 30.00 1016 2 2 0.00 0.00
6:38 am 06:38 Mostly Cloudy with Fog 55 12.8 55 12.8 100 100 SSE 5 7 30.00 1016 0 0 0.00 0.00
6:50 am 06:50 Mostly Cloudy with Mist and Fog 55 13 55 13 100 100 SSE 3 6 30.00 1016 1 2 0.00 0.00
6:53 am 06:53 Mostly Cloudy with Mist and Fog 55 12.8 55 12.8 100 100 VRB 6 9 30.02 1017 2 3 0.00 0.00
7:23 am 07:23 Partly Cloudy with Mist and Fog 56 13.3 56 13.3 100 100 S 6 9 30.00 1016 2 3 0.00 0.00
7:26 am 07:26 Mostly Cloudy with Mist and Fog 56 13.3 56 13.3 100 100 S 6 9 30.00 1016 2 3 0.00 0.00
7:30 am 07:30 Mostly Cloudy with Mist and Fog 56 13.3 56 13.3 100 100 S 5 7 30.00 1016 2 3 0.00 0.00
7:45 am 07:45 Partly Cloudy with Mist and Fog 56 13.3 56 13.3 100 100 S 5 7 30.00 1016 2 3 0.00 0.00
7:53 am 07:53 Partly Cloudy with Mist and Fog 57 13.9 57 13.9 100 100 S 5 7 30.02 1017 3 4 0.00 0.00
8:06 am 08:06 Mostly Cloudy with Mist and Fog 57 13.9 57 13.9 100 100 S 6 9 30.00 1016 3 5 0.00 0.00
8:27 am 08:27 Partly Cloudy with Mist and Fog 58 14.4 58 14.4 100 100 SW 5 7 30.03 1017 5 8 0.00 0.00
8:53 am 08:53 Partly Cloudy with Mist and Fog 59 15 58 14.4 96 96 SSW 5 7 30.03 1017 6 10 0.00 0.00
9:00 am 09:00 Mostly Cloudy with Mist and Fog 59 15 58 14.4 96 96 SSW 5 7 30.03 1017 6 10 0.00 0.00
9:22 am 09:22 Partly Cloudy 61 16.1 59 15 93 93 S 7 11 30.00 1016 7 11 0.00 0.00
9:53 am 09:53 Sunny 63 17.2 58 14.4 84 84 SW 7 11 30.02 1017 9 14 0.00 0.00
10:53 am 10:53 Mostly Sunny 66 18.9 58 14.4 75 75 WSW 7 11 30.01 1016 10 16 0.00 0.00
11:53 am 11:53 Mostly Sunny 70 21.1 58 14.4 66 66 WSW 12 19 29.98 1015 10 16 0.00 0.00
12:53 pm 12:53 Mostly Sunny 72 22.2 58 14.4 61 61 WSW 12 19 29.96 1015 9 14 0.00 0.00
1:53 pm 13:53 Sunny 74 23.3 58 14.4 57 57 SW 9 15 29.93 1014 10 16 0.00 0.00
2:53 pm 14:53 Mostly Sunny 73 22.8 57 13.9 57 57 undefined N/A 29.93 1013 N/A 0.00 0.00
3:53 pm 15:53 Sunny 72 22.2 57 13.9 59 59 SW 7 11 29.92 1013 10 16 0.00 0.00
4:53 pm 16:53 Sunny 70 21.1 58 14.4 66 66 SSW 5 7 29.92 1013 10 16 0.00 0.00
5:53 pm 17:53 Clear 64 17.8 58 14.4 81 81 S 5 7 29.93 1014 10 16 0.00 0.00
6:53 pm 18:53 Clear 60 15.6 57 13.9 90 90 Calm 29.94 1014 10 16 0.00 0.00
7:53 pm 19:53 Mostly Clear 58 14.4 56 13.3 93 93 Calm 29.96 1014 8 13 0.00 0.00
8:53 pm 20:53 Clear 57 13.9 55 12.8 93 93 Calm 29.96 1015 8 13 0.00 0.00
9:53 pm 21:53 Clear with Mist and Fog 55 12.8 55 12.8 100 100 Calm 29.96 1015 4 6 0.00 0.00
10:53 pm 22:53 Clear with Mist and Fog 54 12.2 54 12.2 100 100 Calm 29.96 1015 3 5 0.00 0.00
11:53 pm 23:53 Clear with Mist and Fog 55 12.8 54 12.2 96 96 Calm 29.95 1014 3 5 0.00 0.00

Powered by AerisWeather